This is the latest recevied weather packets stored in our database for station/object VA6GSB-13. If no packets are shown the sender has not sent any weather packets the latest 10 day(s).
| Time | Temp. | Humidity | Pressure | Rain* | Wind** | Luminosity | Snow |
|---|---|---|---|---|---|---|---|
| 1787612440 | 22.22° C | 47% | 1019 hPa | 0 mm | - | 421 W/m² | - |
| 1787612364 | 22.22° C | 48% | 1019.1 hPa | 0 mm | - | 387 W/m² | - |
| 1787612139 | 22.22° C | 49% | 1019 hPa | 0 mm | - | 325 W/m² | - |
| 1787611840 | 22.22° C | 49% | 1019 hPa | 0 mm | - | 306 W/m² | - |
| 1787611763 | 22.22° C | 48% | 1019.1 hPa | 0 mm | - | 340 W/m² | - |
| 1787611463 | 22.22° C | 48% | 1019 hPa | 0 mm | - | 359 W/m² | - |
| 1787611164 | 22.78° C | 49% | 1019 hPa | 0 mm | - | 444 W/m² | - |
| 1787610864 | 22.78° C | 47% | 1019 hPa | 0 mm | - | 189 W/m² | - |
| 1787610640 | 22.78° C | 49% | 1019 hPa | 0 mm | - | 521 W/m² | - |
| 1787610565 | 22.78° C | 49% | 1018.7 hPa | 0 mm | - | 531 W/m² | - |
| 1787610339 | 22.78° C | 48% | 1019 hPa | 0 mm | - | 533 W/m² | - |
| 1787610040 | 22.78° C | 46% | 1019 hPa | 0 mm | - | 578 W/m² | - |
| 1787609739 | 22.78° C | 46% | 1019 hPa | 0 mm | - | 634 W/m² | - |
| 1787609663 | 22.78° C | 45% | 1018.6 hPa | 0 mm | - | 636 W/m² | - |
| 1787609440 | 22.78° C | 46% | 1019 hPa | 0 mm | - | 516 W/m² | - |
| 1787609366 | 22.78° C | 46% | 1018.7 hPa | 0 mm | - | 317 W/m² | - |
| 1787609064 | 22.78° C | 47% | 1018.7 hPa | 0 mm | - | 520 W/m² | - |
| 1787608839 | 22.78° C | 49% | 1019 hPa | 0 mm | - | 689 W/m² | - |
| 1787608764 | 22.78° C | 48% | 1018.6 hPa | 0 mm | - | 703 W/m² | - |
| 1787608539 | 22.78° C | 47% | 1019 hPa | 0 mm | - | 620 W/m² | - |
| 1787608239 | 22.78° C | 48% | 1019 hPa | 0 mm | - | 667 W/m² | - |
| 1787607939 | 22.78° C | 47% | 1019 hPa | 0 mm | - | 729 W/m² | - |
| 1787607864 | 22.78° C | 47% | 1018.7 hPa | 0 mm | - | 726 W/m² | - |
| 1787607639 | 22.78° C | 48% | 1019 hPa | 0 mm | - | 713 W/m² | - |
| 1787607563 | 22.78° C | 47% | 1018.7 hPa | 0 mm | - | 718 W/m² | - |
* Rain latest hour (hover to see other rain measurements)
** Current wind speed in m/s (hover to see current wind gust speed)